Weather History for Saranac Lake, NY

Change the Weather History Date:

Sunday, December 9, 2012

  Actual Average Record
Temperature  
Mean Temperature 30 °F 21 °F  
Max Temperature 35 °F 31 °F 55 °F (1966)
Min Temperature 25 °F 12 °F -22 °F (2002)
Degree Days  
Heating Degree Days 35 44  
Month to date heating degree days 293 376  
Since 1 July heating degree days 2456 2651  
Moisture  
Dew Point 26 °F    
Average Humidity 83    
Maximum Humidity 96    
Minimum Humidity 69    
Precipitation  
Precipitation 0.04 in 0.09 in 0.44 in (1963)
Month to date precipitation 1.07 0.81  
Year to date precipitation 32.02 36.04  
Sea Level Pressure  
Sea Level Pressure 30.13 in    
Wind  
Wind Speed 6 mph (NW)    
Max Wind Speed 14 mph    
Max Gust Speed 20 mph    
Visibility 8 miles    
Events Rain , Snow    
T = Trace of Precipitation, MM = Missing Value Source: NWS Daily Summary

Daily Weather History Graph

Daily Weather History Graph

Search for Another Location

Airport:

Trip Planner

Search our weather history database for the weather conditions in past years. The results will help you decide how hot, cold, wet, or windy it might be!

Date:

Astronomy

Dec. 09, 2012 Rise Set
Actual Time 7:21 AM EST 4:17 PM EST
Civil Twilight 6:48 AM EST 4:50 PM EST
Nautical Twilight 6:11 AM EST 5:27 PM EST
Astronomical Twilight 5:36 AM EST 6:02 PM EST
Moon 2:44 AM EST (12/9) 1:28 PM EST (12/9)
Length of Visible Light 10h 02m
Length of Day
8h 55m
Waning Crescent, 19% of the Moon is Illuminated
Dec 9
Waning Crescent
Dec 13
New
Dec 20
First Quarter
Dec 28
Full
Jan 4
Last Quarter

Hourly Weather History & Observations

Time (EST) Temp. Windchill Dew Point Humidity Pressure Visibility Wind Dir Wind Speed Gust Speed Precip Events Conditions
12:07 AM 35.6 °F 28.6 °F 33.8 °F 93% 29.95 in 5.0 mi West 9.2 mph 18.4 mph 0.00 in   Overcast
12:15 AM 33.8 °F 27.0 °F 33.8 °F 100% 29.95 in 5.0 mi West 8.1 mph - 0.01 in   Overcast
12:51 AM 34.0 °F 28.0 °F 32.0 °F 92% 30.03 in 10.0 mi Variable 6.9 mph - 0.01 in   Overcast
1:21 AM 33.8 °F 29.6 °F 30.2 °F 87% 30.00 in 2.0 mi West 4.6 mph - 0.00 in Snow Light Snow
1:25 AM 33.8 °F 28.6 °F 30.2 °F 87% 30.00 in 1.8 mi Variable 5.8 mph - 0.00 in Snow Light Snow
1:33 AM 32.0 °F 27.5 °F 32.0 °F 100% 30.01 in 1.5 mi WNW 4.6 mph - 0.00 in Snow Light Snow
1:45 AM 32.0 °F 27.5 °F 30.2 °F 93% 30.02 in 3.0 mi Variable 4.6 mph - 0.00 in Snow Light Snow
2:42 AM 30.2 °F 24.3 °F 28.4 °F 93% 30.05 in 10.0 mi West 5.8 mph 16.1 mph 0.00 in   Overcast
2:51 AM 30.9 °F 25.2 °F 28.9 °F 92% 30.10 in 10.0 mi Variable 5.8 mph - 0.00 in   Overcast
3:51 AM 30.9 °F 26.2 °F 28.9 °F 92% 30.12 in 10.0 mi WNW 4.6 mph - N/A   Overcast
4:29 AM 30.2 °F 23.4 °F 26.6 °F 86% 30.09 in 10.0 mi WNW 6.9 mph - 0.00 in   Overcast
4:42 AM 30.2 °F 23.4 °F 26.6 °F 86% 30.10 in 10.0 mi WNW 6.9 mph - 0.00 in   Overcast
4:51 AM 30.0 °F 25.2 °F 27.0 °F 88% 30.15 in 9.0 mi Variable 4.6 mph - 0.00 in   Overcast
5:51 AM 28.9 °F 23.9 °F 26.1 °F 89% 30.19 in 10.0 mi WNW 4.6 mph - N/A   Overcast
6:51 AM 28.0 °F 22.8 °F 23.0 °F 81% 30.23 in 10.0 mi WSW 4.6 mph - N/A   Mostly Cloudy
7:51 AM 27.0 °F 21.6 °F 23.0 °F 85% 30.26 in 10.0 mi Variable 4.6 mph - N/A   Overcast
8:51 AM 26.1 °F 19.4 °F 21.9 °F 84% 30.28 in 10.0 mi West 5.8 mph - N/A   Overcast
9:51 AM 27.0 °F 23.0 °F 24.1 °F 89% 30.29 in 10.0 mi West 3.5 mph - N/A   Overcast
10:51 AM 28.9 °F - 24.1 °F 82% 30.29 in 10.0 mi Calm Calm - N/A   Mostly Cloudy
11:13 AM 28.4 °F - 23.0 °F 80% 30.22 in 10.0 mi Calm Calm - N/A   Scattered Clouds
11:51 AM 30.9 °F 26.2 °F 25.0 °F 79% 30.26 in 10.0 mi SSW 4.6 mph - 0.00 in   Clear
12:51 PM 33.1 °F - 24.1 °F 70% 30.23 in 10.0 mi Calm Calm - N/A   Partly Cloudy
1:51 PM 34.0 °F 29.8 °F 25.0 °F 70% 30.21 in 10.0 mi NNE 4.6 mph - N/A   Clear
2:51 PM 34.0 °F - 25.0 °F 70% 30.23 in 10.0 mi Calm Calm - N/A   Clear
4:51 PM 27.0 °F 16.7 °F 23.0 °F 85% 30.23 in 10.0 mi ENE 11.5 mph - N/A   Overcast
5:51 PM 26.1 °F 15.0 °F 21.9 °F 84% 30.20 in 10.0 mi ENE 12.7 mph - N/A   Mostly Cloudy
6:51 PM 25.0 °F 16.3 °F 21.9 °F 88% 30.22 in 10.0 mi ENE 8.1 mph - N/A   Overcast
7:51 PM 25.0 °F 16.3 °F 21.9 °F 88% 30.18 in 10.0 mi ENE 8.1 mph - N/A   Overcast
8:51 PM 26.1 °F 17.6 °F 21.9 °F 84% 30.12 in 10.0 mi ENE 8.1 mph - N/A   Overcast
9:51 PM 26.1 °F 17.6 °F 21.9 °F 84% 30.07 in 10.0 mi ENE 8.1 mph - 0.00 in   Overcast
10:51 PM 27.0 °F 17.3 °F 23.0 °F 85% 30.01 in 7.0 mi ENE 10.4 mph - 0.02 in   Overcast
11:04 PM 26.6 °F 17.5 °F 23.0 °F 86% 29.93 in 8.0 mi ENE 9.2 mph - 0.00 in Rain Light Freezing Rain
11:38 PM 26.6 °F 16.8 °F 24.8 °F 93% 29.91 in 7.0 mi ENE 10.4 mph - 0.01 in   Overcast